Time,TemperatureF,DewpointF,PressureIn,WindDirection,WindDirectionDegrees,WindSpeedMPH,WindSpeedGustMPH,Humidity,HourlyPrecipIn,Conditions,Clouds,dailyrainin,SoftwareType,DateUTC
2013-07-05 00:04:00,74.5,51.7,29.61,North,0,0.0,0.0,45,0.00,,,0.00,WUHU216HW,2013-07-05 07:04:00,
2013-07-05 00:09:00,74.2,51.4,29.61,North,0,0.0,0.0,45,0.00,,,0.00,WUHU216HW,2013-07-05 07:09:00,
2013-07-05 00:14:00,73.8,51.0,29.61,North,0,0.0,0.0,45,0.00,,,0.00,WUHU216HW,2013-07-05 07:14:00,
2013-07-05 00:19:00,73.8,51.0,29.61,North,0,0.0,0.0,45,0.00,,,0.00,WUHU216HW,2013-07-05 07:19:00,
2013-07-05 00:24:00,73.4,50.7,29.61,North,0,0.0,0.0,45,0.00,,,0.00,WUHU216HW,2013-07-05 07:24:00,
2013-07-05 00:29:00,73.3,50.0,29.61,North,0,0.0,0.0,44,0.00,,,0.00,WUHU216HW,2013-07-05 07:29:00,
2013-07-05 00:34:00,73.1,49.8,29.61,North,0,0.0,0.0,44,0.00,,,0.00,WUHU216HW,2013-07-05 07:34:00,
2013-07-05 00:39:00,72.9,49.6,29.61,North,0,0.0,0.0,44,0.00,,,0.00,WUHU216HW,2013-07-05 07:39:00,
2013-07-05 00:44:00,72.7,49.4,29.61,North,0,0.0,0.0,44,0.00,,,0.00,WUHU216HW,2013-07-05 07:44:00,
2013-07-05 00:49:00,72.4,49.2,29.62,North,0,0.0,0.0,44,0.00,,,0.00,WUHU216HW,2013-07-05 07:49:00,
2013-07-05 00:55:00,72.2,49.0,29.61,North,0,0.0,0.0,44,0.00,,,0.00,WUHU216HW,2013-07-05 07:55:00,
2013-07-05 01:00:00,71.8,48.6,29.62,North,0,0.0,0.0,44,0.00,,,0.00,WUHU216HW,2013-07-05 08:00:00,
2013-07-05 01:05:00,71.6,48.4,29.62,North,0,0.0,0.0,44,0.00,,,0.00,WUHU216HW,2013-07-05 08:05:00,
2013-07-05 01:10:00,71.3,48.2,29.62,North,0,0.0,0.0,44,0.00,,,0.00,WUHU216HW,2013-07-05 08:10:00,
2013-07-05 01:15:00,71.1,48.6,29.62,North,0,0.0,0.0,45,0.00,,,0.00,WUHU216HW,2013-07-05 08:15:00,
2013-07-05 01:20:00,70.7,48.2,29.62,North,0,0.0,0.0,45,0.00,,,0.00,WUHU216HW,2013-07-05 08:20:00,
2013-07-05 01:25:00,70.6,48.7,29.62,North,0,0.0,0.0,46,0.00,,,0.00,WUHU216HW,2013-07-05 08:25:00,
2013-07-05 01:30:00,70.2,48.3,29.62,North,0,0.0,0.0,46,0.00,,,0.00,WUHU216HW,2013-07-05 08:30:00,
2013-07-05 01:35:00,70.0,48.2,29.62,North,0,0.0,0.0,46,0.00,,,0.00,WUHU216HW,2013-07-05 08:35:00,
2013-07-05 01:40:00,69.8,48.1,29.62,North,0,0.0,0.0,46,0.00,,,0.00,WUHU216HW,2013-07-05 08:40:00,
2013-07-05 01:45:00,69.8,48.1,29.62,North,0,0.0,0.0,46,0.00,,,0.00,WUHU216HW,2013-07-05 08:45:00,
2013-07-05 01:50:00,69.7,47.9,29.62,North,0,0.0,0.0,46,0.00,,,0.00,WUHU216HW,2013-07-05 08:50:00,
2013-07-05 01:55:00,69.5,47.7,29.62,North,0,0.0,0.0,46,0.00,,,0.00,WUHU216HW,2013-07-05 08:55:00,
2013-07-05 02:01:00,69.3,47.5,29.62,North,0,0.0,0.0,46,0.00,,,0.00,WUHU216HW,2013-07-05 09:01:00,
2013-07-05 02:06:00,69.1,47.3,29.62,North,0,0.0,0.0,46,0.00,,,0.00,WUHU216HW,2013-07-05 09:06:00,
2013-07-05 02:11:00,68.9,47.3,29.62,North,0,0.0,0.0,46,0.00,,,0.00,WUHU216HW,2013-07-05 09:11:00,
2013-07-05 02:16:00,68.6,46.9,29.62,North,0,0.0,0.0,46,0.00,,,0.00,WUHU216HW,2013-07-05 09:16:00,
2013-07-05 02:21:00,68.4,47.4,29.62,North,0,0.0,0.0,47,0.00,,,0.00,WUHU216HW,2013-07-05 09:21:00,
2013-07-05 02:26:00,68.0,47.0,29.62,North,0,0.0,0.0,47,0.00,,,0.00,WUHU216HW,2013-07-05 09:26:00,
2013-07-05 02:31:00,68.0,47.0,29.62,North,0,0.0,0.0,47,0.00,,,0.00,WUHU216HW,2013-07-05 09:31:00,
2013-07-05 02:37:00,67.7,47.3,29.62,North,0,0.0,0.0,48,0.00,,,0.00,WUHU216HW,2013-07-05 09:37:00,
2013-07-05 02:42:00,67.5,47.1,29.62,North,0,0.0,0.0,48,0.00,,,0.00,WUHU216HW,2013-07-05 09:42:00,
2013-07-05 02:47:00,67.3,47.0,29.62,North,0,0.0,0.0,48,0.00,,,0.00,WUHU216HW,2013-07-05 09:47:00,
2013-07-05 02:52:00,67.3,47.0,29.62,North,0,0.0,0.0,48,0.00,,,0.00,WUHU216HW,2013-07-05 09:52:00,
2013-07-05 02:58:00,67.0,46.6,29.62,North,0,0.0,0.0,48,0.00,,,0.00,WUHU216HW,2013-07-05 09:58:00,
2013-07-05 03:03:00,66.8,47.1,29.62,North,0,0.0,0.0,49,0.00,,,0.00,WUHU216HW,2013-07-05 10:03:00,
2013-07-05 03:08:00,66.6,47.5,29.62,North,0,0.0,0.0,50,0.00,,,0.00,WUHU216HW,2013-07-05 10:08:00,
2013-07-05 03:13:00,66.2,47.6,29.62,North,0,0.0,0.0,51,0.00,,,0.00,WUHU216HW,2013-07-05 10:13:00,
2013-07-05 03:18:00,66.1,47.4,29.62,North,0,0.0,0.0,51,0.00,,,0.00,WUHU216HW,2013-07-05 10:18:00,
2013-07-05 03:23:00,65.7,47.6,29.62,North,0,0.0,0.0,52,0.00,,,0.00,WUHU216HW,2013-07-05 10:23:00,
2013-07-05 03:28:00,65.3,47.7,29.62,North,0,0.0,0.0,53,0.00,,,0.00,WUHU216HW,2013-07-05 10:28:00,
2013-07-05 03:33:00,65.2,48.1,29.62,North,0,0.0,0.0,54,0.00,,,0.00,WUHU216HW,2013-07-05 10:33:00,
2013-07-05 03:38:00,65.0,47.9,29.62,North,0,0.0,0.0,54,0.00,,,0.00,WUHU216HW,2013-07-05 10:38:00,
2013-07-05 03:44:00,64.4,47.8,29.62,North,0,0.0,0.0,55,0.00,,,0.00,WUHU216HW,2013-07-05 10:44:00,
2013-07-05 03:49:00,64.3,48.2,29.62,North,0,0.0,0.0,56,0.00,,,0.00,WUHU216HW,2013-07-05 10:49:00,
2013-07-05 03:54:00,64.3,48.2,29.62,North,0,0.0,0.0,56,0.00,,,0.00,WUHU216HW,2013-07-05 10:54:00,
2013-07-05 03:59:00,64.1,48.4,29.62,North,0,0.0,0.0,57,0.00,,,0.00,WUHU216HW,2013-07-05 10:59:00,
2013-07-05 04:04:00,63.7,48.2,29.62,North,0,0.0,0.0,57,0.00,,,0.00,WUHU216HW,2013-07-05 11:04:00,
2013-07-05 04:09:00,63.5,48.4,29.62,North,0,0.0,0.0,58,0.00,,,0.00,WUHU216HW,2013-07-05 11:09:00,
2013-07-05 04:14:00,63.4,48.2,29.62,North,0,0.0,0.0,58,0.00,,,0.00,WUHU216HW,2013-07-05 11:14:00,
2013-07-05 04:20:00,63.2,48.6,29.62,North,0,0.0,0.0,59,0.00,,,0.00,WUHU216HW,2013-07-05 11:20:00,
2013-07-05 04:25:00,63.0,48.4,29.62,North,0,0.0,0.0,59,0.00,,,0.00,WUHU216HW,2013-07-05 11:25:00,
2013-07-05 04:30:00,62.8,48.2,29.62,North,0,0.0,0.0,59,0.00,,,0.00,WUHU216HW,2013-07-05 11:30:00,
2013-07-05 04:35:00,62.5,48.4,29.62,North,0,0.0,0.0,60,0.00,,,0.00,WUHU216HW,2013-07-05 11:35:00,
2013-07-05 04:40:00,62.5,48.4,29.62,North,0,0.0,0.0,60,0.00,,,0.00,WUHU216HW,2013-07-05 11:40:00,
2013-07-05 04:45:00,62.3,48.7,29.62,North,0,0.0,0.0,61,0.00,,,0.00,WUHU216HW,2013-07-05 11:45:00,
2013-07-05 04:51:00,62.1,48.5,29.62,North,0,0.0,0.0,61,0.00,,,0.00,WUHU216HW,2013-07-05 11:51:00,
2013-07-05 04:56:00,61.9,48.3,29.62,North,0,0.0,0.0,61,0.00,,,0.00,WUHU216HW,2013-07-05 11:56:00,
2013-07-05 05:01:00,61.7,48.6,29.62,North,0,0.0,0.0,62,0.00,,,0.00,WUHU216HW,2013-07-05 12:01:00,
2013-07-05 05:06:00,61.7,48.6,29.63,North,0,0.0,0.0,62,0.00,,,0.00,WUHU216HW,2013-07-05 12:06:00,
2013-07-05 05:11:00,61.6,48.9,29.62,North,0,0.0,0.0,63,0.00,,,0.00,WUHU216HW,2013-07-05 12:11:00,
2013-07-05 05:17:00,61.6,48.9,29.63,North,0,0.0,0.0,63,0.00,,,0.00,WUHU216HW,2013-07-05 12:17:00,
2013-07-05 05:22:00,61.6,48.9,29.63,North,0,0.0,0.0,63,0.00,,,0.00,WUHU216HW,2013-07-05 12:22:00,
2013-07-05 05:27:00,61.4,48.7,29.63,North,0,0.0,0.0,63,0.00,,,0.00,WUHU216HW,2013-07-05 12:27:00,
2013-07-05 05:32:00,61.2,48.5,29.63,North,0,0.0,0.0,63,0.00,,,0.00,WUHU216HW,2013-07-05 12:32:00,
2013-07-05 05:37:00,61.0,48.8,29.63,North,0,0.0,0.0,64,0.00,,,0.00,WUHU216HW,2013-07-05 12:37:00,
2013-07-05 05:42:00,60.8,49.1,29.64,North,0,0.0,0.0,65,0.00,,,0.00,WUHU216HW,2013-07-05 12:42:00,
2013-07-05 05:47:00,60.8,49.1,29.64,North,0,0.0,0.0,65,0.00,,,0.00,WUHU216HW,2013-07-05 12:47:00,
2013-07-05 05:52:00,60.7,48.9,29.64,North,0,0.0,0.0,65,0.00,,,0.00,WUHU216HW,2013-07-05 12:52:00,
2013-07-05 05:58:00,60.5,48.7,29.64,North,0,0.0,0.0,65,0.00,,,0.00,WUHU216HW,2013-07-05 12:58:00,
2013-07-05 06:03:00,60.5,48.7,29.64,North,0,0.0,0.0,65,0.00,,,0.00,WUHU216HW,2013-07-05 13:03:00,
2013-07-05 06:08:00,60.3,48.5,29.65,North,0,0.0,0.0,65,0.00,,,0.00,WUHU216HW,2013-07-05 13:08:00,
2013-07-05 06:13:00,60.3,49.0,29.65,North,0,0.0,0.0,66,0.00,,,0.00,WUHU216HW,2013-07-05 13:13:00,
2013-07-05 06:19:00,60.3,49.0,29.65,North,0,0.0,0.0,66,0.00,,,0.00,WUHU216HW,2013-07-05 13:19:00,
2013-07-05 06:24:00,60.1,49.1,29.65,North,0,0.0,0.0,67,0.00,,,0.00,WUHU216HW,2013-07-05 13:24:00,
2013-07-05 06:29:00,60.1,49.1,29.65,North,0,0.0,0.0,67,0.00,,,0.00,WUHU216HW,2013-07-05 13:29:00,
2013-07-05 06:34:00,60.3,49.3,29.65,North,0,0.0,0.0,67,0.00,,,0.00,WUHU216HW,2013-07-05 13:34:00,
2013-07-05 06:39:00,60.5,49.5,29.65,North,0,0.0,0.0,67,0.00,,,0.00,WUHU216HW,2013-07-05 13:39:00,
2013-07-05 06:45:00,60.5,50.0,29.65,North,0,0.0,0.0,68,0.00,,,0.00,WUHU216HW,2013-07-05 13:45:00,
2013-07-05 06:50:00,60.5,50.0,29.66,North,0,0.0,0.0,68,0.00,,,0.00,WUHU216HW,2013-07-05 13:50:00,
2013-07-05 06:55:00,60.5,50.3,29.66,North,0,0.0,0.0,69,0.00,,,0.00,WUHU216HW,2013-07-05 13:55:00,
2013-07-05 07:01:00,60.5,50.3,29.66,North,0,0.0,0.0,69,0.00,,,0.00,WUHU216HW,2013-07-05 14:01:00,
2013-07-05 07:06:00,60.5,50.3,29.66,North,0,0.0,0.0,69,0.00,,,0.00,WUHU216HW,2013-07-05 14:06:00,
2013-07-05 07:11:00,60.7,50.5,29.66,North,0,0.0,0.0,69,0.00,,,0.00,WUHU216HW,2013-07-05 14:11:00,
2013-07-05 07:16:00,61.0,50.9,29.67,North,0,0.0,0.0,69,0.00,,,0.00,WUHU216HW,2013-07-05 14:16:00,
2013-07-05 07:21:00,61.2,51.0,29.66,North,0,0.0,0.0,69,0.00,,,0.00,WUHU216HW,2013-07-05 14:21:00,
2013-07-05 07:26:00,61.4,51.2,29.66,North,0,0.0,0.0,69,0.00,,,0.00,WUHU216HW,2013-07-05 14:26:00,
2013-07-05 07:32:00,61.6,51.4,29.66,North,0,0.0,0.0,69,0.00,,,0.00,WUHU216HW,2013-07-05 14:32:00,
2013-07-05 07:37:00,61.9,51.3,29.67,North,0,0.0,0.0,68,0.00,,,0.00,WUHU216HW,2013-07-05 14:37:00,
2013-07-05 07:42:00,62.3,51.6,29.66,North,0,0.0,0.0,68,0.00,,,0.00,WUHU216HW,2013-07-05 14:42:00,
2013-07-05 07:47:00,62.3,51.6,29.67,North,0,0.0,0.0,68,0.00,,,0.00,WUHU216HW,2013-07-05 14:47:00,
2013-07-05 07:52:00,62.5,51.3,29.67,North,0,0.0,0.0,67,0.00,,,0.00,WUHU216HW,2013-07-05 14:52:00,
2013-07-05 07:58:00,62.5,51.8,29.67,North,0,0.0,0.0,68,0.00,,,0.00,WUHU216HW,2013-07-05 14:58:00,
2013-07-05 08:03:00,62.6,51.9,29.67,North,0,0.0,0.0,68,0.00,,,0.00,WUHU216HW,2013-07-05 15:03:00,
2013-07-05 08:08:00,62.6,51.9,29.68,North,0,0.0,0.0,68,0.00,,,0.00,WUHU216HW,2013-07-05 15:08:00,
2013-07-05 08:13:00,63.0,51.8,29.68,North,0,0.0,0.0,67,0.00,,,0.00,WUHU216HW,2013-07-05 15:13:00,
2013-07-05 08:18:00,63.4,52.7,29.68,North,0,0.0,0.0,68,0.00,,,0.00,WUHU216HW,2013-07-05 15:18:00,
2013-07-05 08:23:00,63.4,52.2,29.68,North,0,0.0,0.0,67,0.00,,,0.00,WUHU216HW,2013-07-05 15:23:00,
2013-07-05 08:28:00,63.7,52.6,29.68,North,0,0.0,0.0,67,0.00,,,0.00,WUHU216HW,2013-07-05 15:28:00,
2013-07-05 08:33:00,63.7,52.6,29.68,North,0,0.0,0.0,67,0.00,,,0.00,WUHU216HW,2013-07-05 15:33:00,
2013-07-05 08:38:00,63.7,52.6,29.68,North,0,0.0,0.0,67,0.00,,,0.00,WUHU216HW,2013-07-05 15:38:00,
2013-07-05 08:43:00,63.9,52.8,29.69,North,0,0.0,0.0,67,0.00,,,0.00,WUHU216HW,2013-07-05 15:43:00,
2013-07-05 08:48:00,63.9,52.8,29.69,North,0,0.0,0.0,67,0.00,,,0.00,WUHU216HW,2013-07-05 15:48:00,
2013-07-05 08:50:00,63.9,52.8,29.69,North,0,0.0,0.0,67,0.00,,,0.00,WUHU216HW,2013-07-05 15:50:00,
2013-07-05 08:55:00,64.1,52.9,29.69,North,0,0.0,0.0,67,0.00,,,0.00,WUHU216HW,2013-07-05 15:55:00,
2013-07-05 09:00:00,64.3,53.1,29.69,North,0,0.0,0.0,67,0.00,,,0.00,WUHU216HW,2013-07-05 16:00:00,
2013-07-05 09:05:00,64.4,52.8,29.69,North,0,0.0,0.0,66,0.00,,,0.00,WUHU216HW,2013-07-05 16:05:00,
2013-07-05 09:10:00,64.6,53.0,29.69,North,0,0.0,0.0,66,0.00,,,0.00,WUHU216HW,2013-07-05 16:10:00,
2013-07-05 09:15:00,64.6,53.0,29.69,North,0,0.0,0.0,66,0.00,,,0.00,WUHU216HW,2013-07-05 16:15:00,
2013-07-05 09:20:00,64.8,53.2,29.69,North,0,0.0,0.0,66,0.00,,,0.00,WUHU216HW,2013-07-05 16:20:00,
2013-07-05 09:25:00,65.0,52.9,29.69,North,0,0.0,0.0,65,0.00,,,0.00,WUHU216HW,2013-07-05 16:25:00,
2013-07-05 09:26:00,65.2,53.1,29.69,North,0,0.0,0.0,65,0.00,,,0.00,WUHU216HW,2013-07-05 16:26:00,
2013-07-05 09:31:00,65.3,53.3,29.69,North,0,0.0,0.0,65,0.00,,,0.00,WUHU216HW,2013-07-05 16:31:00,
2013-07-05 09:36:00,65.7,53.6,29.69,North,0,0.0,0.0,65,0.00,,,0.00,WUHU216HW,2013-07-05 16:36:00,
2013-07-05 09:41:00,65.9,53.7,29.68,North,0,0.0,0.0,65,0.00,,,0.00,WUHU216HW,2013-07-05 16:41:00,
2013-07-05 09:46:00,66.2,53.6,29.68,North,0,0.0,0.0,64,0.00,,,0.00,WUHU216HW,2013-07-05 16:46:00,
2013-07-05 09:51:00,66.6,54.0,29.69,North,0,0.0,0.0,64,0.00,,,0.00,WUHU216HW,2013-07-05 16:51:00,
2013-07-05 09:56:00,66.8,53.7,29.68,North,0,0.0,0.0,63,0.00,,,0.00,WUHU216HW,2013-07-05 16:56:00,
2013-07-05 10:01:00,67.1,54.1,29.68,North,0,0.0,0.0,63,0.00,,,0.00,WUHU216HW,2013-07-05 17:01:00,
2013-07-05 10:06:00,67.1,53.6,29.68,North,0,0.0,0.0,62,0.00,,,0.00,WUHU216HW,2013-07-05 17:06:00,
2013-07-05 10:12:00,67.3,53.8,29.68,North,0,0.0,0.0,62,0.00,,,0.00,WUHU216HW,2013-07-05 17:12:00,
2013-07-05 10:17:00,67.3,54.3,29.68,North,0,0.0,0.0,63,0.00,,,0.00,WUHU216HW,2013-07-05 17:17:00,
2013-07-05 10:22:00,67.9,54.4,29.69,North,0,0.0,0.0,62,0.00,,,0.00,WUHU216HW,2013-07-05 17:22:00,
2013-07-05 10:27:00,68.2,54.3,29.69,North,0,0.0,0.0,61,0.00,,,0.00,WUHU216HW,2013-07-05 17:27:00,
2013-07-05 10:32:00,68.0,54.1,29.69,North,0,0.0,0.0,61,0.00,,,0.00,WUHU216HW,2013-07-05 17:32:00,
2013-07-05 10:37:00,68.4,54.0,29.69,North,0,0.0,0.0,60,0.00,,,0.00,WUHU216HW,2013-07-05 17:37:00,
2013-07-05 10:42:00,68.6,54.6,29.68,North,0,0.0,0.0,61,0.00,,,0.00,WUHU216HW,2013-07-05 17:42:00,
2013-07-05 10:47:00,69.1,54.7,29.68,North,0,0.0,0.0,60,0.00,,,0.00,WUHU216HW,2013-07-05 17:47:00,
2013-07-05 10:48:00,69.1,54.7,29.69,North,0,0.0,0.0,60,0.00,,,0.00,WUHU216HW,2013-07-05 17:48:00,
2013-07-05 10:53:00,69.5,54.5,29.68,North,0,0.0,0.0,59,0.00,,,0.00,WUHU216HW,2013-07-05 17:53:00,
2013-07-05 10:58:00,69.8,54.9,29.68,North,0,0.0,0.0,59,0.00,,,0.00,WUHU216HW,2013-07-05 17:58:00,
2013-07-05 10:59:00,69.8,54.9,29.68,North,0,0.0,0.0,59,0.00,,,0.00,WUHU216HW,2013-07-05 17:59:00,
2013-07-05 11:04:00,70.2,54.7,29.68,North,0,0.0,0.0,58,0.00,,,0.00,WUHU216HW,2013-07-05 18:04:00,
2013-07-05 11:09:00,70.4,54.9,29.68,North,0,0.0,0.0,58,0.00,,,0.00,WUHU216HW,2013-07-05 18:09:00,
2013-07-05 11:14:00,70.9,55.5,29.68,North,0,0.0,0.0,58,0.00,,,0.00,WUHU216HW,2013-07-05 18:14:00,
2013-07-05 11:19:00,71.6,55.1,29.68,North,0,0.0,0.0,56,0.00,,,0.00,WUHU216HW,2013-07-05 18:19:00,
2013-07-05 11:24:00,71.6,55.1,29.68,North,0,0.0,0.0,56,0.00,,,0.00,WUHU216HW,2013-07-05 18:24:00,
2013-07-05 11:29:00,71.6,55.1,29.68,North,0,0.0,0.0,56,0.00,,,0.00,WUHU216HW,2013-07-05 18:29:00,
2013-07-05 11:34:00,71.6,55.1,29.68,North,0,0.0,0.0,56,0.00,,,0.00,WUHU216HW,2013-07-05 18:34:00,
2013-07-05 11:40:00,72.2,55.5,29.68,North,0,0.0,0.0,56,0.00,,,0.00,WUHU216HW,2013-07-05 18:40:00,
2013-07-05 11:45:00,72.7,55.5,29.68,North,0,0.0,0.0,55,0.00,,,0.00,WUHU216HW,2013-07-05 18:45:00,
2013-07-05 11:50:00,73.1,55.4,29.68,North,0,0.0,0.0,54,0.00,,,0.00,WUHU216HW,2013-07-05 18:50:00,
2013-07-05 11:55:00,73.1,55.4,29.68,North,0,0.0,0.0,54,0.00,,,0.00,WUHU216HW,2013-07-05 18:55:00,
2013-07-05 12:00:00,73.4,55.6,29.67,North,0,0.0,0.0,54,0.00,,,0.00,WUHU216HW,2013-07-05 19:00:00,
2013-07-05 12:05:00,74.2,55.9,29.67,North,0,0.0,0.0,53,0.00,,,0.00,WUHU216HW,2013-07-05 19:05:00,
2013-07-05 12:10:00,74.7,55.9,29.68,North,0,0.0,0.0,52,0.00,,,0.00,WUHU216HW,2013-07-05 19:10:00,
2013-07-05 12:15:00,74.7,55.9,29.67,North,0,0.0,0.0,52,0.00,,,0.00,WUHU216HW,2013-07-05 19:15:00,
2013-07-05 12:20:00,74.9,56.1,29.67,North,0,0.0,0.0,52,0.00,,,0.00,WUHU216HW,2013-07-05 19:20:00,
2013-07-05 12:25:00,75.2,56.4,29.67,North,0,0.0,0.0,52,0.00,,,0.00,WUHU216HW,2013-07-05 19:25:00,
2013-07-05 12:31:00,75.4,56.1,29.67,North,0,0.0,0.0,51,0.00,,,0.00,WUHU216HW,2013-07-05 19:31:00,
2013-07-05 12:36:00,75.8,56.4,29.67,North,0,0.0,0.0,51,0.00,,,0.00,WUHU216HW,2013-07-05 19:36:00,
2013-07-05 12:41:00,76.0,56.1,29.67,North,0,0.0,0.0,50,0.00,,,0.00,WUHU216HW,2013-07-05 19:41:00,
2013-07-05 12:46:00,76.1,56.3,29.67,North,0,0.0,0.0,50,0.00,,,0.00,WUHU216HW,2013-07-05 19:46:00,
2013-07-05 12:51:00,76.3,56.4,29.66,North,0,0.0,0.0,50,0.00,,,0.00,WUHU216HW,2013-07-05 19:51:00,
2013-07-05 12:56:00,76.7,56.2,29.66,North,0,0.0,0.0,49,0.00,,,0.00,WUHU216HW,2013-07-05 19:56:00,
2013-07-05 13:01:00,76.9,56.3,29.66,North,0,0.0,0.0,49,0.00,,,0.00,WUHU216HW,2013-07-05 20:01:00,
2013-07-05 13:06:00,77.0,56.4,29.66,North,0,0.0,0.0,49,0.00,,,0.00,WUHU216HW,2013-07-05 20:06:00,
2013-07-05 13:11:00,77.4,57.4,29.66,North,0,0.0,0.0,50,0.00,,,0.00,WUHU216HW,2013-07-05 20:11:00,
2013-07-05 13:16:00,77.8,56.5,29.66,North,0,0.0,0.0,48,0.00,,,0.00,WUHU216HW,2013-07-05 20:16:00,
2013-07-05 13:21:00,77.8,56.5,29.66,North,0,0.0,0.0,48,0.00,,,0.00,WUHU216HW,2013-07-05 20:21:00,
2013-07-05 13:27:00,77.6,56.4,29.65,North,0,0.0,0.0,48,0.00,,,0.00,WUHU216HW,2013-07-05 20:27:00,
2013-07-05 13:32:00,77.8,56.5,29.65,North,0,0.0,0.0,48,0.00,,,0.00,WUHU216HW,2013-07-05 20:32:00,
2013-07-05 13:37:00,77.6,56.4,29.65,North,0,0.0,0.0,48,0.00,,,0.00,WUHU216HW,2013-07-05 20:37:00,
2013-07-05 13:42:00,77.4,56.8,29.65,North,0,0.0,0.0,49,0.00,,,0.00,WUHU216HW,2013-07-05 20:42:00,
2013-07-05 13:47:00,78.5,57.2,29.64,North,0,0.0,0.0,48,0.00,,,0.00,WUHU216HW,2013-07-05 20:47:00,
2013-07-05 13:52:00,79.2,57.2,29.65,North,0,0.0,0.0,47,0.00,,,0.00,WUHU216HW,2013-07-05 20:52:00,
2013-07-05 13:57:00,80.1,58.0,29.64,North,0,0.0,0.0,47,0.00,,,0.00,WUHU216HW,2013-07-05 20:57:00,
2013-07-05 14:03:00,80.6,57.9,29.64,North,0,0.0,0.0,46,0.00,,,0.00,WUHU216HW,2013-07-05 21:03:00,
2013-07-05 14:08:00,81.0,57.6,29.64,North,0,0.0,0.0,45,0.00,,,0.00,WUHU216HW,2013-07-05 21:08:00,
2013-07-05 14:13:00,81.4,57.9,29.64,North,0,0.0,0.0,45,0.00,,,0.00,WUHU216HW,2013-07-05 21:13:00,
2013-07-05 14:18:00,81.4,57.9,29.64,North,0,0.0,0.0,45,0.00,,,0.00,WUHU216HW,2013-07-05 21:18:00,
2013-07-05 14:23:00,81.7,57.6,29.64,North,0,0.0,0.0,44,0.00,,,0.00,WUHU216HW,2013-07-05 21:23:00,
2013-07-05 14:28:00,82.3,58.1,29.64,North,0,0.0,0.0,44,0.00,,,0.00,WUHU216HW,2013-07-05 21:28:00,
2013-07-05 14:34:00,83.2,58.3,29.63,North,0,0.0,0.0,43,0.00,,,0.00,WUHU216HW,2013-07-05 21:34:00,
2013-07-05 14:39:00,83.9,58.3,29.63,North,0,0.0,0.0,42,0.00,,,0.00,WUHU216HW,2013-07-05 21:39:00,
2013-07-05 14:44:00,84.2,58.1,29.63,North,0,0.0,0.0,41,0.00,,,0.00,WUHU216HW,2013-07-05 21:44:00,
2013-07-05 14:49:00,84.4,58.9,29.63,North,0,0.0,0.0,42,0.00,,,0.00,WUHU216HW,2013-07-05 21:49:00,
2013-07-05 14:54:00,84.6,58.4,29.63,North,0,0.0,0.0,41,0.00,,,0.00,WUHU216HW,2013-07-05 21:54:00,
2013-07-05 14:59:00,83.5,57.4,29.63,North,0,0.0,0.0,41,0.00,,,0.00,WUHU216HW,2013-07-05 21:59:00,
2013-07-05 15:04:00,83.3,57.9,29.62,North,0,0.0,0.0,42,0.00,,,0.00,WUHU216HW,2013-07-05 22:04:00,
2013-07-05 15:09:00,83.7,58.1,29.63,North,0,0.0,0.0,42,0.00,,,0.00,WUHU216HW,2013-07-05 22:09:00,
2013-07-05 15:10:00,83.7,58.1,29.63,North,0,0.0,0.0,42,0.00,,,0.00,WUHU216HW,2013-07-05 22:10:00,
2013-07-05 15:15:00,84.2,58.7,29.62,North,0,0.0,0.0,42,0.00,,,0.00,WUHU216HW,2013-07-05 22:15:00,
2013-07-05 15:20:00,84.6,58.4,29.62,North,0,0.0,0.0,41,0.00,,,0.00,WUHU216HW,2013-07-05 22:20:00,
2013-07-05 15:25:00,85.5,59.2,29.62,North,0,0.0,0.0,41,0.00,,,0.00,WUHU216HW,2013-07-05 22:25:00,
2013-07-05 15:30:00,85.9,58.9,29.62,North,0,0.0,0.0,40,0.00,,,0.00,WUHU216HW,2013-07-05 22:30:00,
2013-07-05 15:35:00,86.0,59.7,29.62,North,0,0.0,0.0,41,0.00,,,0.00,WUHU216HW,2013-07-05 22:35:00,
2013-07-05 15:40:00,85.0,58.1,29.62,North,0,0.0,0.0,40,0.00,,,0.00,WUHU216HW,2013-07-05 22:40:00,
2013-07-05 15:46:00,84.4,57.6,29.62,North,0,0.0,0.0,40,0.00,,,0.00,WUHU216HW,2013-07-05 22:46:00,
2013-07-05 15:51:00,83.7,57.0,29.62,North,0,0.0,0.0,40,0.00,,,0.00,WUHU216HW,2013-07-05 22:51:00,
2013-07-05 15:56:00,83.2,57.1,29.62,North,0,0.0,0.0,41,0.00,,,0.00,WUHU216HW,2013-07-05 22:56:00,
2013-07-05 16:01:00,83.2,57.1,29.62,North,0,0.0,0.0,41,0.00,,,0.00,WUHU216HW,2013-07-05 23:01:00,
2013-07-05 16:06:00,82.8,56.7,29.62,North,0,0.0,0.0,41,0.00,,,0.00,WUHU216HW,2013-07-05 23:06:00,
2013-07-05 16:11:00,82.8,57.3,29.62,North,0,0.0,0.0,42,0.00,,,0.00,WUHU216HW,2013-07-05 23:11:00,
2013-07-05 16:16:00,82.8,56.7,29.62,North,0,0.0,0.0,41,0.00,,,0.00,WUHU216HW,2013-07-05 23:16:00,
2013-07-05 16:21:00,81.7,55.8,29.61,North,0,0.0,0.0,41,0.00,,,0.00,WUHU216HW,2013-07-05 23:21:00,
2013-07-05 16:26:00,81.0,55.7,29.61,North,0,0.0,0.0,42,0.00,,,0.00,WUHU216HW,2013-07-05 23:26:00,
2013-07-05 16:31:00,81.0,56.3,29.61,North,0,0.0,0.0,43,0.00,,,0.00,WUHU216HW,2013-07-05 23:31:00,
2013-07-05 16:36:00,80.5,55.9,29.62,North,0,0.0,0.0,43,0.00,,,0.00,WUHU216HW,2013-07-05 23:36:00,
2013-07-05 16:41:00,80.3,56.4,29.62,North,0,0.0,0.0,44,0.00,,,0.00,WUHU216HW,2013-07-05 23:41:00,
2013-07-05 16:47:00,80.1,56.2,29.61,North,0,0.0,0.0,44,0.00,,,0.00,WUHU216HW,2013-07-05 23:47:00,
2013-07-05 16:52:00,79.6,55.6,29.61,North,0,0.0,0.0,44,0.00,,,0.00,WUHU216HW,2013-07-05 23:52:00,
2013-07-05 16:57:00,79.0,55.8,29.61,North,0,0.0,0.0,45,0.00,,,0.00,WUHU216HW,2013-07-05 23:57:00,
2013-07-05 17:02:00,78.8,55.6,29.61,North,0,0.0,0.0,45,0.00,,,0.00,WUHU216HW,2013-07-06 00:02:00,
2013-07-05 17:08:00,78.8,55.6,29.61,North,0,0.0,0.0,45,0.00,,,0.00,WUHU216HW,2013-07-06 00:08:00,
2013-07-05 17:10:00,78.8,56.3,29.61,North,0,0.0,0.0,46,0.00,,,0.00,WUHU216HW,2013-07-06 00:10:00,
2013-07-05 17:15:00,79.0,55.8,29.61,North,0,0.0,0.0,45,0.00,,,0.00,WUHU216HW,2013-07-06 00:15:00,
2013-07-05 17:20:00,78.7,56.1,29.61,North,0,0.0,0.0,46,0.00,,,0.00,WUHU216HW,2013-07-06 00:20:00,
2013-07-05 17:25:00,78.5,55.9,29.61,North,0,0.0,0.0,46,0.00,,,0.00,WUHU216HW,2013-07-06 00:25:00,
2013-07-05 17:31:00,78.1,55.6,29.61,North,0,0.0,0.0,46,0.00,,,0.00,WUHU216HW,2013-07-06 00:31:00,
2013-07-05 17:36:00,77.8,55.3,29.61,North,0,0.0,0.0,46,0.00,,,0.00,WUHU216HW,2013-07-06 00:36:00,
2013-07-05 17:37:00,77.6,55.1,29.61,North,0,0.0,0.0,46,0.00,,,0.00,WUHU216HW,2013-07-06 00:37:00,
2013-07-05 17:42:00,77.2,55.4,29.61,North,0,0.0,0.0,47,0.00,,,0.00,WUHU216HW,2013-07-06 00:42:00,
2013-07-05 17:47:00,77.0,55.3,29.61,North,0,0.0,0.0,47,0.00,,,0.00,WUHU216HW,2013-07-06 00:47:00,
2013-07-05 17:52:00,77.0,55.3,29.61,North,0,0.0,0.0,47,0.00,,,0.00,WUHU216HW,2013-07-06 00:52:00,
2013-07-05 17:57:00,77.0,55.3,29.61,North,0,0.0,0.0,47,0.00,,,0.00,WUHU216HW,2013-07-06 00:57:00,
2013-07-05 18:02:00,77.4,55.5,29.60,North,0,0.0,0.0,47,0.00,,,0.00,WUHU216HW,2013-07-06 01:02:00,
2013-07-05 18:07:00,77.8,55.3,29.60,North,0,0.0,0.0,46,0.00,,,0.00,WUHU216HW,2013-07-06 01:07:00,
2013-07-05 18:08:00,77.8,55.3,29.61,North,0,0.0,0.0,46,0.00,,,0.00,WUHU216HW,2013-07-06 01:08:00,
2013-07-05 18:13:00,77.6,55.1,29.60,North,0,0.0,0.0,46,0.00,,,0.00,WUHU216HW,2013-07-06 01:13:00,
2013-07-05 18:18:00,76.7,54.3,29.61,North,0,0.0,0.0,46,0.00,,,0.00,WUHU216HW,2013-07-06 01:18:00,
2013-07-05 18:23:00,76.1,54.5,29.61,North,0,0.0,0.0,47,0.00,,,0.00,WUHU216HW,2013-07-06 01:23:00,
2013-07-05 18:28:00,75.8,54.1,29.61,North,0,0.0,0.0,47,0.00,,,0.00,WUHU216HW,2013-07-06 01:28:00,
2013-07-05 18:33:00,75.4,54.4,29.61,North,0,0.0,0.0,48,0.00,,,0.00,WUHU216HW,2013-07-06 01:33:00,
2013-07-05 18:38:00,75.4,54.4,29.61,North,0,0.0,0.0,48,0.00,,,0.00,WUHU216HW,2013-07-06 01:38:00,
2013-07-05 18:43:00,75.8,54.7,29.61,North,0,0.0,0.0,48,0.00,,,0.00,WUHU216HW,2013-07-06 01:43:00,
2013-07-05 18:48:00,75.6,54.5,29.61,North,0,0.0,0.0,48,0.00,,,0.00,WUHU216HW,2013-07-06 01:48:00,
2013-07-05 18:49:00,75.6,54.5,29.61,North,0,0.0,0.0,48,0.00,,,0.00,WUHU216HW,2013-07-06 01:49:00,
2013-07-05 18:55:00,74.9,53.8,29.61,North,0,0.0,0.0,48,0.00,,,0.00,WUHU216HW,2013-07-06 01:55:00,
2013-07-05 19:00:00,74.3,53.9,29.61,North,0,0.0,0.0,49,0.00,,,0.00,WUHU216HW,2013-07-06 02:00:00,
2013-07-05 19:05:00,73.8,53.4,29.61,North,0,0.0,0.0,49,0.00,,,0.00,WUHU216HW,2013-07-06 02:05:00,
2013-07-05 19:10:00,73.3,53.5,29.62,North,0,0.0,0.0,50,0.00,,,0.00,WUHU216HW,2013-07-06 02:10:00,
2013-07-05 19:15:00,72.7,53.0,29.62,North,0,0.0,0.0,50,0.00,,,0.00,WUHU216HW,2013-07-06 02:15:00,
2013-07-05 19:21:00,72.4,53.2,29.62,North,0,0.0,0.0,51,0.00,,,0.00,WUHU216HW,2013-07-06 02:21:00,
2013-07-05 19:26:00,72.0,53.4,29.62,North,0,0.0,0.0,52,0.00,,,0.00,WUHU216HW,2013-07-06 02:26:00,
2013-07-05 19:31:00,71.1,53.0,29.62,North,0,0.0,0.0,53,0.00,,,0.00,WUHU216HW,2013-07-06 02:31:00,
2013-07-05 19:32:00,70.9,52.4,29.62,North,0,0.0,0.0,52,0.00,,,0.00,WUHU216HW,2013-07-06 02:32:00,
2013-07-05 19:37:00,70.6,53.1,29.62,North,0,0.0,0.0,54,0.00,,,0.00,WUHU216HW,2013-07-06 02:37:00,
2013-07-05 19:42:00,69.7,52.3,29.62,North,0,0.0,0.0,54,0.00,,,0.00,WUHU216HW,2013-07-06 02:42:00,
2013-07-05 19:47:00,69.1,52.2,29.62,North,0,0.0,0.0,55,0.00,,,0.00,WUHU216HW,2013-07-06 02:47:00,
2013-07-05 19:52:00,68.6,52.2,29.63,North,0,0.0,0.0,56,0.00,,,0.00,WUHU216HW,2013-07-06 02:52:00,
2013-07-05 19:57:00,67.9,52.0,29.63,North,0,0.0,0.0,57,0.00,,,0.00,WUHU216HW,2013-07-06 02:57:00,
2013-07-05 19:58:00,67.9,52.0,29.63,North,0,0.0,0.0,57,0.00,,,0.00,WUHU216HW,2013-07-06 02:58:00,
2013-07-05 20:03:00,67.5,52.2,29.63,North,0,0.0,0.0,58,0.00,,,0.00,WUHU216HW,2013-07-06 03:03:00,
2013-07-05 20:08:00,67.1,51.8,29.63,North,0,0.0,0.0,58,0.00,,,0.00,WUHU216HW,2013-07-06 03:08:00,
2013-07-05 20:13:00,66.8,51.6,29.63,North,0,0.0,0.0,58,0.00,,,0.00,WUHU216HW,2013-07-06 03:13:00,
2013-07-05 20:18:00,66.6,51.8,29.63,North,0,0.0,0.0,59,0.00,,,0.00,WUHU216HW,2013-07-06 03:18:00,
2013-07-05 20:23:00,66.4,51.7,29.64,North,0,0.0,0.0,59,0.00,,,0.00,WUHU216HW,2013-07-06 03:23:00,
2013-07-05 20:29:00,66.1,51.4,29.63,North,0,0.0,0.0,59,0.00,,,0.00,WUHU216HW,2013-07-06 03:29:00,
2013-07-05 20:34:00,65.9,51.7,29.64,North,0,0.0,0.0,60,0.00,,,0.00,WUHU216HW,2013-07-06 03:34:00,
2013-07-05 20:39:00,65.7,51.5,29.64,North,0,0.0,0.0,60,0.00,,,0.00,WUHU216HW,2013-07-06 03:39:00,
2013-07-05 20:44:00,65.3,51.1,29.64,North,0,0.0,0.0,60,0.00,,,0.00,WUHU216HW,2013-07-06 03:44:00,
2013-07-05 20:49:00,65.2,51.4,29.64,North,0,0.0,0.0,61,0.00,,,0.00,WUHU216HW,2013-07-06 03:49:00,
2013-07-05 20:54:00,64.8,51.0,29.64,North,0,0.0,0.0,61,0.00,,,0.00,WUHU216HW,2013-07-06 03:54:00,
2013-07-05 21:00:00,64.4,51.1,29.64,North,0,0.0,0.0,62,0.00,,,0.00,WUHU216HW,2013-07-06 04:00:00,
2013-07-05 21:01:00,64.3,51.0,29.64,North,0,0.0,0.0,62,0.00,,,0.00,WUHU216HW,2013-07-06 04:01:00,
2013-07-05 21:02:00,64.3,51.0,29.64,North,0,0.0,0.0,62,0.00,,,0.00,WUHU216HW,2013-07-06 04:02:00,
2013-07-05 21:07:00,64.1,50.8,29.64,North,0,0.0,0.0,62,0.00,,,0.00,WUHU216HW,2013-07-06 04:07:00,
2013-07-05 21:12:00,63.9,51.0,29.64,North,0,0.0,0.0,63,0.00,,,0.00,WUHU216HW,2013-07-06 04:12:00,
2013-07-05 21:17:00,63.7,50.9,29.65,North,0,0.0,0.0,63,0.00,,,0.00,WUHU216HW,2013-07-06 04:17:00,
2013-07-05 21:22:00,63.4,51.0,29.65,North,0,0.0,0.0,64,0.00,,,0.00,WUHU216HW,2013-07-06 04:22:00,
2013-07-05 21:27:00,63.0,50.6,29.65,North,0,0.0,0.0,64,0.00,,,0.00,WUHU216HW,2013-07-06 04:27:00,
2013-07-05 21:32:00,63.0,50.6,29.65,North,0,0.0,0.0,64,0.00,,,0.00,WUHU216HW,2013-07-06 04:32:00,
2013-07-05 21:37:00,62.6,51.1,29.66,North,0,0.0,0.0,66,0.00,,,0.00,WUHU216HW,2013-07-06 04:37:00,
2013-07-05 21:42:00,62.3,50.8,29.65,North,0,0.0,0.0,66,0.00,,,0.00,WUHU216HW,2013-07-06 04:42:00,
2013-07-05 21:48:00,62.3,50.8,29.66,North,0,0.0,0.0,66,0.00,,,0.00,WUHU216HW,2013-07-06 04:48:00,
2013-07-05 21:53:00,61.9,50.4,29.66,North,0,0.0,0.0,66,0.00,,,0.00,WUHU216HW,2013-07-06 04:53:00,
2013-07-05 21:58:00,61.9,50.4,29.66,North,0,0.0,0.0,66,0.00,,,0.00,WUHU216HW,2013-07-06 04:58:00,
2013-07-05 22:03:00,61.9,50.4,29.66,North,0,0.0,0.0,66,0.00,,,0.00,WUHU216HW,2013-07-06 05:03:00,
2013-07-05 22:08:00,61.9,50.4,29.66,North,0,0.0,0.0,66,0.00,,,0.00,WUHU216HW,2013-07-06 05:08:00,
2013-07-05 22:13:00,61.7,50.7,29.67,North,0,0.0,0.0,67,0.00,,,0.00,WUHU216HW,2013-07-06 05:13:00,
2013-07-05 22:18:00,61.6,50.5,29.66,North,0,0.0,0.0,67,0.00,,,0.00,WUHU216HW,2013-07-06 05:18:00,
2013-07-05 22:23:00,61.6,50.5,29.67,North,0,0.0,0.0,67,0.00,,,0.00,WUHU216HW,2013-07-06 05:23:00,
2013-07-05 22:28:00,61.6,50.5,29.66,North,0,0.0,0.0,67,0.00,,,0.00,WUHU216HW,2013-07-06 05:28:00,
2013-07-05 22:33:00,61.4,50.4,29.66,North,0,0.0,0.0,67,0.00,,,0.00,WUHU216HW,2013-07-06 05:33:00,
2013-07-05 22:38:00,61.4,50.8,29.66,North,0,0.0,0.0,68,0.00,,,0.00,WUHU216HW,2013-07-06 05:38:00,
2013-07-05 22:43:00,61.2,51.0,29.66,North,0,0.0,0.0,69,0.00,,,0.00,WUHU216HW,2013-07-06 05:43:00,
2013-07-05 22:48:00,61.0,50.0,29.66,North,0,0.0,0.0,67,0.00,,,0.00,WUHU216HW,2013-07-06 05:48:00,
2013-07-05 22:54:00,60.8,50.3,29.66,North,0,0.0,0.0,68,0.00,,,0.00,WUHU216HW,2013-07-06 05:54:00,
2013-07-05 22:59:00,60.8,50.3,29.66,North,0,0.0,0.0,68,0.00,,,0.00,WUHU216HW,2013-07-06 05:59:00,
2013-07-05 23:04:00,60.8,50.3,29.66,North,0,0.0,0.0,68,0.00,,,0.00,WUHU216HW,2013-07-06 06:04:00,
2013-07-05 23:09:00,60.8,50.3,29.66,North,0,0.0,0.0,68,0.00,,,0.00,WUHU216HW,2013-07-06 06:09:00,
2013-07-05 23:14:00,60.8,50.3,29.67,North,0,0.0,0.0,68,0.00,,,0.00,WUHU216HW,2013-07-06 06:14:00,
2013-07-05 23:19:00,60.7,50.5,29.66,North,0,0.0,0.0,69,0.00,,,0.00,WUHU216HW,2013-07-06 06:19:00,
2013-07-05 23:24:00,60.5,50.3,29.66,North,0,0.0,0.0,69,0.00,,,0.00,WUHU216HW,2013-07-06 06:24:00,
2013-07-05 23:29:00,60.5,50.3,29.66,North,0,0.0,0.0,69,0.00,,,0.00,WUHU216HW,2013-07-06 06:29:00,
2013-07-05 23:34:00,60.5,50.3,29.66,North,0,0.0,0.0,69,0.00,,,0.00,WUHU216HW,2013-07-06 06:34:00,
2013-07-05 23:39:00,60.3,50.1,29.66,North,0,0.0,0.0,69,0.00,,,0.00,WUHU216HW,2013-07-06 06:39:00,
2013-07-05 23:44:00,60.3,50.1,29.66,North,0,0.0,0.0,69,0.00,,,0.00,WUHU216HW,2013-07-06 06:44:00,
2013-07-05 23:49:00,60.1,50.0,29.67,North,0,0.0,0.0,69,0.00,,,0.00,WUHU216HW,2013-07-06 06:49:00,
2013-07-05 23:54:00,60.1,50.4,29.66,North,0,0.0,0.0,70,0.00,,,0.00,WUHU216HW,2013-07-06 06:54:00,